星链-31870 (STARLINK-31870 )

导读

STARLINK-31870是美国SpaceX星链星座的卫星,于2024年5月18日发射,星链系统旨在为全球提供高速互联网服务,尤其覆盖偏远地区。该卫星延续星链设计,在近地轨道运行,属于美国第二代星链组网卫星,持续推进星链星座规模扩张,增强全球网络覆盖能力。

基本信息
目录编号:
59787
目录名称:
STARLINK-31870
国际标识:
2024-093F
轨道中心:
EARTH
卫星名称:
星链-31870
卫星全名:
星链-31870 (STARLINK-31870 )
卫星状态:
在轨 (已飞行758 天)
发射日期:
2024-05-18 UTC
国别 :
美国 (US)
星等 :
--
轨道信息
数据来源 国际轨道数据
星历时间: 2026-06-15T05:05:03+0800
7小时前
查看轨道信息
半长轴: 6861.155km
偏心率: 0.0000867
轨道倾角: 43.007°
近地点辐角 281.950°
升交点赤经 19.645°
平近点角 78.125°
近地点: 482.423km
远地点: 483.613km
周期: 94.266分钟
每日圈数: 15.275906
详细信息
固有亮度:
5
最大亮度:
1.5
卫星平台:
Starlink v2.0 mini
覆盖范围:
全球
运营商:
太空探索技术公司
运营商所在国:
美国
制造商(研发单位):
太空探索技术公司
制造商所在国:
美国
使用方式:
暂无
卫星简介
星链(Starlink)计划是由太空探索技术公司(SpaceX)提出的一个巨型低轨卫星互联网星座项目,计划在2019年至2024年间在太空搭建由约1.2万颗卫星组成的“星链”网络,其中1584颗将部署在地球上空550千米处的近地轨道,并从2020年开始工作。该卫星仍在工作。
2D轨道图
3D轨道图
轨道高度分析图
轨道倾角分析图
轨道综合分析图
查看轨道综合分析图